Location: Unspecified
(0.0000°N, 0.0000°E)
Time: 23:04:29
(UTC+00:00)

A-11 Canister half - Pass Details

Date: 05 October 2023
Orbit: 1515 x 1684 km, 47.2° (Epoch: 10 September)

Event Time Altitude Azimuth Distance (km) Brightness Sun altitude
Rises 12:28:08 0° 206° (SSW) 4,934 11.8 79.0°
Reaches altitude 10° 12:31:33 10° 200° (SSW) 3,948 11.4 78.2°
Maximum altitude 12:41:04 45° 130° (SE) 2,174 10.5 76.0°
Drops below altitude 10° 12:50:24 10° 61° (ENE) 3,885 11.1 73.8°
Sets 12:53:41 0° 55° (NE) 4,850 11.5 73.0°
